Regional Weather Roundup
Issued by NWS Northern Indiana

Home | Current Version | Previous Version | Text Only | Print | Product List | Glossary Off
Versions: 1 2 3 4 5 6 7 8 9 10 11 12 13 14 15 16 17 18 19 20 21 22 23 24 25 26 27 28 29 30 31 32 33 34 35 36 37 38 39 40 41 42 43 44 45 46 47 48 49 50

000
ASUS43 KIWX 261210
RWRIWX

KIWX WEATHER ROUNDUP
NATIONAL WEATHER SERVICE NORTHERN INDIANA
800 AM EDT SUN MAR 26 2017

NOTE: "FAIR" INDICATES FEW OR NO CLOUDS BELOW 12,000 FEET WITH NO
SIGNIFICANT WEATHER AND/OR OBSTRUCTIONS TO VISIBILITY.

* THESE STATIONS ARE NOT UNDER NWS QUALITY CONTROL. THEY ALSO MAY NOT
  REPORT WEATHER SUCH AS PRECIPITATION OR FOG.

INZ001>027-261300-
NORTHERN INDIANA

CITY           SKY/WX    TMP DP  RH WIND       PRES   REMARKS
GARY*          RAIN      52  50  93 SE14      29.87S
VALPARAISO     LGT RAIN  50  49  96 E8        29.89S FOG
6HR MIN TEMP:  49; 6HR MAX TEMP:  50; 6HR PCP:  0.31;

MICHIGAN CITY* LGT RAIN  46  46 100 SE3       29.90F
LAPORTE*       LGT RAIN  47  47  99 E6        29.91S
6HR MIN TEMP:  46; 6HR MAX TEMP:  47; 6HR PCP:  0.08;

KNOX*          CLOUDY    48  43  81 SE6       29.90S
SOUTH BEND     LGT RAIN  45  50 100 E10       29.92F
6HR MIN TEMP:  44; 6HR MAX TEMP:  45; 6HR PCP:  0.20;

ELKHART*       RAIN      45  45 100 E7        29.93
GOSHEN         LGT RAIN  46  43  89 SE7       29.94R FOG
6HR MIN TEMP:  43; 6HR MAX TEMP:  46; 6HR PCP:  0.12;

MONTICELLO*    RAIN      53  52  95 E5        29.89S
6HR MIN TEMP:  50; 6HR MAX TEMP:  53; 6HR PCP:  0.36;

LOGANSPORT*    RAIN      52  52 100 E6        29.91S
ROCHESTER*     DRIZZLE   52  52 100 SE7       29.92S
WARSAW*        LGT RAIN  45  45 100 SE3       29.93S
ANGOLA*        CLOUDY    39  39 100 SE7       29.97R
FORT WAYNE     LGT RAIN  43  41  93 E12       29.96F FOG
6HR MIN TEMP:  42; 6HR MAX TEMP:  44; 6HR PCP:  0.13;

HUNTINGTON*    RAIN      46  45  96 E8        29.94F
6HR MIN TEMP:  42; 6HR MAX TEMP:  47; 6HR PCP:  0.15;

PERU/GRISSOM   LGT RAIN  55  55 100 SE7       29.89F
6HR MIN TEMP:  48; 6HR MAX TEMP:  55; 6HR PCP:  0.29;

MARION*        LGT RAIN  55  54  99 SE7       29.93F
6HR MIN TEMP:  26; 6HR MAX TEMP:  75;


$$
INZ028>050-261300-
CENTRAL INDIANA

CITY           SKY/WX    TMP DP  RH WIND       PRES   REMARKS
LAFAYETTE      LGT RAIN  56  56 100 S10       29.88R
6HR MIN TEMP:  56; 6HR MAX TEMP:  60; 6HR PCP:  0.54;

KOKOMO*        LGT RAIN  56  54  93 SE12      29.91F
6HR MIN TEMP:  49; 6HR MAX TEMP:  56; 6HR PCP:  0.31;

MUNCIE*        LGT RAIN  58  55  90 S7        29.94S
6HR MIN TEMP:  54; 6HR MAX TEMP:  61; 6HR PCP:  0.25;

INDIANAPOLIS   HVY RAIN  56  55  97 VRB3      29.91R FOG
6HR MIN TEMP:  56; 6HR MAX TEMP:  58; 6HR PCP:  0.46;


$$
MIZ043>046-050>051-056>058-064>065-071>073-077>080-261300-
SOUTHWEST LOWER MICHIGAN

CITY           SKY/WX    TMP DP  RH WIND       PRES   REMARKS
BATTLE CREEK   LGT RAIN  42  41  96 E7        29.97F
6HR MIN TEMP:  41; 6HR MAX TEMP:  43; 6HR PCP:  0.06;

BENTON HARBOR  LGT RAIN  47  45  93 E10       29.92F FOG
6HR MIN TEMP:  47; 6HR MAX TEMP:  48; 6HR PCP:  0.10;

COLDWATER*     CLOUDY    43  42  98 E10       29.96F FOG
6HR MIN TEMP:  42; 6HR MAX TEMP:  43;

HILLSDALE*     CLOUDY    37  36  93 E8        29.98S FOG
HOLLAND        LGT RAIN  43  40  89 E12       29.96S FOG
6HR MIN TEMP:  43; 6HR MAX TEMP:  44; 6HR PCP:  0.07;

GRAND RAPIDS   LGT RAIN  39  37  92 E12       29.98S FOG
6HR MIN TEMP:  39; 6HR MAX TEMP:  41; 6HR PCP:  0.08;

KALAMAZOO      LGT RAIN  43  40  89 NE5       29.95F FOG
6HR MIN TEMP:  43; 6HR MAX TEMP:  44; 6HR PCP:  0.05;

STURGIS*       CLOUDY    43  42  98 E9        29.95R FOG
6HR MIN TEMP:  42; 6HR MAX TEMP:  43; 6HR PCP:  0.04;

THREE RIVERS*  DRIZZLE   43  42  97 E5        29.95F
6HR MIN TEMP:  43; 6HR MAX TEMP:  44;


$$
OHZ001>008-015>018-024>025-261300-
NORTHWEST OHIO

CITY           SKY/WX    TMP DP  RH WIND       PRES   REMARKS
WAUSEON*       CLOUDY    39  37  93 E12       30.00F
DEFIANCE       CLOUDY    39  36  89 NE6       30.00S
6HR MIN TEMP:  39; 6HR MAX TEMP:  39; 6HR PCP: TRACE;

FINDLAY        MOCLDY    42  36  79 NE5       29.98F
6HR MIN TEMP:  41; 6HR MAX TEMP:  44;

TOLEDO EXPRESS CLOUDY    38  36  92 E8        30.01S
6HR MIN TEMP:  37; 6HR MAX TEMP:  39;

TOLEDO METCALF CLOUDY    38  37  97 NE8       30.02S FOG
6HR MIN TEMP:  38; 6HR MAX TEMP:  39;

LIMA           MOCLDY    43  41  93 E5        29.97S
6HR MIN TEMP:  43; 6HR MAX TEMP:  49;


$$
AND FOR LAKE MICHIGAN COASTAL AND OPEN LAKE BUOY OBSERVATIONS

STATION/POSITION TEMP    WIND        PRES    VSBY  WAVE
                 AIR SEA DIR/SP/G                  HT/PER
                 (F)     (DEG/KT/KT) (MB)    (MI)  (FT/S)
CALUMET HARBOR    46     110/  7/ 10 1010.9S
MICHIGAN CITY     49     120/ 12/ 16   N/A
BURNS HARBOR      51     130/ 12/ 18 1012.2F

$$
&&



USA.gov is the U.S. government's official web portal to all federal, state and local government web resources and services.